Zurück zum Katalog

CZ-6A DEB

AktivSSO
NORAD 55528·DEBRIS·🇨🇳 China

Gestartet Nov 11, 2022 von Taiyuan Satellite Launch Center

Loading…

Nächste Überflüge (nächste 24 Stunden)

TLE

AktuellSource: Space-Track

Epoche: Sep 14, 2026, 14:36 UTC

1 55528U 22151YA  26257.60885544  .00002456  00000-0  59185-3 0  9996
2 55528  98.6256 313.2822 0068411 339.7527  20.0957 14.52790187197015

Verfolge CZ-6A DEB in Echtzeit mit AllMySat

Download on the App Store